TimePST,TemperatureF,Dew PointF,Humidity,Sea Level PressureIn,VisibilityMPH,Wind Direction,Wind SpeedMPH,Gust SpeedMPH,PrecipitationIn,Events,Conditions,WindDirDegrees,DateUTC
12:56 AM,43.0,35.1,74,30.17,10.0,Calm,Calm,-,N/A,,Clear,0,2014-01-02 08:56:00
1:56 AM,42.1,35.1,76,30.17,10.0,Calm,Calm,-,N/A,,Clear,0,2014-01-02 09:56:00
2:56 AM,41.0,34.0,76,30.18,10.0,Calm,Calm,-,N/A,,Clear,0,2014-01-02 10:56:00
3:56 AM,41.0,34.0,76,30.17,10.0,Calm,Calm,-,N/A,,Clear,0,2014-01-02 11:56:00
4:56 AM,41.0,34.0,76,30.17,10.0,Calm,Calm,-,N/A,,Clear,0,2014-01-02 12:56:00
5:56 AM,41.0,34.0,76,30.17,10.0,Calm,Calm,-,N/A,,Clear,0,2014-01-02 13:56:00
6:56 AM,42.1,35.1,76,30.17,10.0,Calm,Calm,-,N/A,,Clear,0,2014-01-02 14:56:00
7:56 AM,39.9,34.0,79,30.17,10.0,Calm,Calm,-,N/A,,Clear,0,2014-01-02 15:56:00
8:56 AM,46.0,39.0,76,30.18,9.0,Calm,Calm,-,N/A,,Clear,0,2014-01-02 16:56:00
9:56 AM,51.1,39.9,66,30.19,9.0,Calm,Calm,-,N/A,,Clear,0,2014-01-02 17:56:00
10:56 AM,54.0,37.9,55,30.18,9.0,North,3.5,-,N/A,,Clear,350,2014-01-02 18:56:00
11:56 AM,57.9,35.1,42,30.16,8.0,Calm,Calm,-,N/A,,Clear,0,2014-01-02 19:56:00
12:56 PM,63.0,34.0,34,30.12,9.0,North,3.5,-,N/A,,Clear,360,2014-01-02 20:56:00
1:56 PM,64.0,35.1,34,30.10,9.0,Calm,Calm,-,N/A,,Clear,0,2014-01-02 21:56:00
2:56 PM,64.0,39.9,41,30.09,9.0,North,3.5,-,N/A,,Clear,350,2014-01-02 22:56:00
3:56 PM,59.0,39.0,48,30.09,9.0,North,6.9,-,N/A,,Clear,350,2014-01-02 23:56:00
4:56 PM,55.9,37.9,51,30.08,8.0,Calm,Calm,-,N/A,,Clear,0,2014-01-03 00:56:00
5:56 PM,54.0,37.9,55,30.08,9.0,Calm,Calm,-,N/A,,Clear,0,2014-01-03 01:56:00
6:56 PM,54.0,37.9,55,30.08,9.0,Calm,Calm,-,N/A,,Clear,0,2014-01-03 02:56:00
7:56 PM,54.0,37.0,53,30.07,10.0,Calm,Calm,-,N/A,,Clear,0,2014-01-03 03:56:00
8:56 PM,50.0,36.0,59,30.07,10.0,Calm,Calm,-,N/A,,Clear,0,2014-01-03 04:56:00
9:56 PM,50.0,36.0,59,30.08,10.0,Calm,Calm,-,N/A,,Clear,0,2014-01-03 05:56:00
10:56 PM,48.9,36.0,61,30.08,10.0,Calm,Calm,-,N/A,,Clear,0,2014-01-03 06:56:00
11:56 PM,46.9,35.1,63,30.08,10.0,Calm,Calm,-,N/A,,Clear,0,2014-01-03 07:56:00